Home > Weather > Sheffield > Past weeks

Flag for United Kingdom Weather for the Past 2 Weeks in Sheffield, England, United Kingdom

Now
39 °F

Chilly.


Feels Like: 34 °F
Forecast: 35 / 44 °F
Wind: 8 mph from Northwest

Location: Manchester Airport

Current Time: Feb 10, 2016 at 4:01:38 AM

Latest Report: Feb 10, 2016 at 3:20 AM


Visibility: N/A

Pressure: 29.21 "Hg

Humidity: 93%

Dew point: 37 °F

Location of SheffieldLocation

Historic Weather in Sheffield — Graph

°F

Sheffield Temperature Yesterday

Maximum temperature yesterday: 43 °F (at 1:20 PM)
Minimum temperature yesterday: 34 °F (at 7:50 AM)
Average temperature yesterday: 39 °F

High & Low Weather Summary for the Past Weeks

 TemperatureHumidityPressure
High57 °F (Jan 27, 10:20 AM)100% (Jan 31, 11:20 AM)30.27 "Hg (Jan 31, 11:20 AM)
Low34 °F (Jan 28, 5:20 AM)57% (Jan 30, 2:50 PM)28.71 "Hg (Feb 8, 7:20 AM)
Average45 °F82%29.62 "Hg
* Reported Jan 26 1:50 AM — Feb 10 1:50 AM, Sheffield, Weather by CustomWeather, © 2016

Note: Actual official high and low records may vary slightly from our data, if they occured in-between our weather recording intervals... More about our weather records

Advertising

Sheffield Weather History for the Previous 24 Hours

 ConditionsComfort  
Time TempWeatherWind HumidityBarometerVisibility
1:50 AM
Wed, Feb 10
41 °FPassing clouds.8 mph87%29.18 "HgN/A
1:20 AM39 °FPartly cloudy.5 mph93%29.18 "HgN/A
12:50 AM41 °FRain. Partly cloudy.6 mph87%29.18 "HgN/A
12:20 AM39 °FPassing clouds.6 mph93%29.15 "HgN/A
11:50 PM
Tue, Feb 9
37 °FPartly cloudy.5 mph93%29.15 "HgN/A
11:20 PM37 °FPartly cloudy.5 mph93%29.12 "HgN/A
10:50 PM37 °FPartly cloudy.6 mph93%29.12 "HgN/A
9:50 PM37 °FPassing clouds.7 mph93%29.09 "HgN/A
9:20 PM37 °FPassing clouds.7 mph93%29.09 "HgN/A
8:50 PM37 °FPassing clouds.6 mph87%29.09 "HgN/A
8:20 PM37 °FPassing clouds.8 mph87%29.06 "HgN/A
7:50 PM37 °FPassing clouds.10 mph93%29.06 "HgN/A
7:20 PM39 °FSprinkles. Passing clouds.12 mph87%29.06 "HgN/A
6:50 PM37 °FScattered showers. Passing clouds.8 mph87%29.06 "HgN/A
6:20 PM39 °FPassing clouds.9 mph81%29.03 "HgN/A
5:50 PM39 °FMostly cloudy.12 mph81%29.03 "HgN/A
5:20 PM39 °FScattered showers. Passing clouds.15 mph87%29.03 "HgN/A
4:50 PM39 °FScattered showers. Scattered clouds.13 mph87%29.00 "HgN/A
4:20 PM41 °FSprinkles. Partly sunny.13 mph76%29.00 "HgN/A
3:50 PM41 °FScattered showers. Scattered clouds.14 mph76%29.00 "HgN/A
3:20 PM43 °FScattered showers. Scattered clouds.12 mph71%29.00 "HgN/A
2:50 PM41 °FScattered clouds.12 mph76%29.00 "HgN/A
2:20 PM43 °FScattered clouds.13 mph71%29.00 "HgN/A
1:50 PM41 °FScattered clouds.15 mph76%29.00 "HgN/A
1:20 PM43 °FScattered clouds.12 mph71%29.00 "HgN/A
12:50 PM41 °FScattered clouds.13 mph70%29.00 "HgN/A
12:20 PM41 °FScattered clouds.16 mph70%29.00 "HgN/A
11:50 AM41 °FPassing clouds.15 mph70%29.00 "HgN/A
11:20 AM41 °FPassing clouds.16 mph70%29.03 "HgN/A
10:20 AM39 °FPassing clouds.10 mph81%29.03 "HgN/A
9:50 AM37 °FPassing clouds.10 mph81%29.03 "HgN/A
9:20 AM37 °FScattered clouds.12 mph81%29.03 "HgN/A
8:50 AM36 °FPassing clouds.9 mph87%29.03 "HgN/A
8:20 AM34 °FSunny.9 mph93%29.03 "Hg10 mi
7:50 AM34 °FPassing clouds.10 mph93%29.06 "HgN/A
7:20 AM36 °FPassing clouds.10 mph87%29.06 "HgN/A
6:50 AM36 °FPassing clouds.10 mph87%29.06 "HgN/A
6:20 AM36 °FPassing clouds.12 mph87%29.06 "HgN/A
5:50 AM36 °FPassing clouds.10 mph87%29.06 "HgN/A
5:20 AM36 °FClear.13 mph87%29.06 "Hg10 mi
4:50 AM37 °FPassing clouds.12 mph81%29.09 "HgN/A
4:20 AM37 °FClear.12 mph81%29.09 "Hg10 mi
Weather by CustomWeather, © 2016

See weather overviewHow to use our weather pages